Location: Bakhuizen
(52.8696°N, 5.4575°E)
Time: 16:06:29
(UTC+00:00)

Cosmos 1833 - Pass Details

Date: 02 October 2021
Orbit: 835 x 864 km, 70.9° (Epoch: 21 October)

Event Time Altitude Azimuth Distance (km) Brightness Sun altitude
Rises 17:54:33 0° 327° (NNW) 3,400 7.9 -7.2°
Reaches altitude 10° 17:57:01 10° 324° (NW) 2,460 7.2 -7.6°
Maximum altitude 18:02:34 63° 245° (WSW) 929 4.7 -8.4°
Drops below altitude 10° 18:08:06 10° 165° (SSE) 2,443 6.4 -9.2°
Sets 18:10:32 0° 162° (SSE) 3,374 7.1 -9.6°
